Time,TemperatureF,DewpointF,PressureIn,WindDirection,WindDirectionDegrees,WindSpeedMPH,WindSpeedGustMPH,Humidity,HourlyPrecipIn,Conditions,Clouds,dailyrainin,SoftwareType,DateUTC
2013-07-07 00:02:00,69.0,66.0,-100.00,WSW,240,1.0,3.0,90,0.00,,,-99.99,,2013-07-07 04:02:00,
2013-07-07 00:11:00,68.0,66.0,-100.00,SSW,210,1.0,4.0,91,0.00,,,-99.99,,2013-07-07 04:11:00,
2013-07-07 00:21:00,68.0,65.0,-100.00,WSW,245,1.0,3.0,91,0.00,,,-99.99,,2013-07-07 04:21:00,
2013-07-07 00:31:00,68.0,65.0,-100.00,SW,215,1.0,3.0,91,0.00,,,-99.99,,2013-07-07 04:31:00,
2013-07-07 00:41:00,68.0,65.0,-100.00,SW,220,0.0,4.0,91,0.00,,,-99.99,,2013-07-07 04:41:00,
2013-07-07 00:51:00,68.0,65.0,-100.00,South,190,1.0,3.0,91,0.00,,,-99.99,,2013-07-07 04:51:00,
2013-07-07 01:01:00,68.0,65.0,-100.00,West,265,1.0,3.0,91,0.00,,,-99.99,,2013-07-07 05:01:00,
2013-07-07 01:11:00,68.0,65.0,-100.00,West,265,1.0,3.0,91,0.00,,,-99.99,,2013-07-07 05:11:00,
2013-07-07 01:21:00,67.0,65.0,-100.00,East,100,0.0,1.0,91,0.00,,,-99.99,,2013-07-07 05:21:00,
2013-07-07 01:31:00,67.0,65.0,-100.00,NW,325,0.0,2.0,92,0.00,,,-99.99,,2013-07-07 05:31:00,
2013-07-07 01:41:00,67.0,65.0,-100.00,NNE,30,0.0,1.0,92,0.00,,,-99.99,,2013-07-07 05:41:00,
2013-07-07 01:51:00,67.0,65.0,-100.00,West,275,0.0,3.0,92,0.00,,,-99.99,,2013-07-07 05:51:00,
2013-07-07 02:01:00,67.0,65.0,-100.00,SW,235,1.0,2.0,92,0.00,,,-99.99,,2013-07-07 06:01:00,
2013-07-07 02:11:00,67.0,64.0,-100.00,NNE,15,0.0,1.0,92,0.00,,,-99.99,,2013-07-07 06:11:00,
2013-07-07 02:21:00,67.0,65.0,-100.00,SSE,165,0.0,1.0,93,0.00,,,-99.99,,2013-07-07 06:21:00,
2013-07-07 02:32:00,67.0,65.0,-100.00,SSE,165,0.0,1.0,93,0.00,,,-99.99,,2013-07-07 06:32:00,
2013-07-07 02:43:00,67.0,65.0,-100.00,East,90,0.0,1.0,93,0.00,,,-99.99,,2013-07-07 06:43:00,
2013-07-07 02:52:00,67.0,65.0,-100.00,East,90,0.0,1.0,93,0.00,,,-99.99,,2013-07-07 06:52:00,
2013-07-07 03:02:00,67.0,65.0,-100.00,South,175,0.0,1.0,93,0.00,,,-99.99,,2013-07-07 07:02:00,
2013-07-07 03:11:00,67.0,65.0,-100.00,WNW,290,0.0,1.0,93,0.00,,,-99.99,,2013-07-07 07:11:00,
2013-07-07 03:22:00,66.0,64.0,-100.00,East,85,0.0,1.0,93,0.00,,,-99.99,,2013-07-07 07:22:00,
2013-07-07 03:33:00,66.0,64.0,-100.00,NW,305,0.0,1.0,93,0.00,,,-99.99,,2013-07-07 07:33:00,
2013-07-07 03:44:00,66.0,64.0,-100.00,South,180,0.0,1.0,93,0.00,,,-99.99,,2013-07-07 07:44:00,
2013-07-07 03:53:00,66.0,64.0,-100.00,WSW,245,0.0,1.0,93,0.00,,,-99.99,,2013-07-07 07:53:00,
2013-07-07 04:02:00,66.0,64.0,-100.00,SSW,195,0.0,1.0,94,0.00,,,-99.99,,2013-07-07 08:02:00,
2013-07-07 04:12:00,66.0,64.0,-100.00,SW,225,1.0,2.0,94,0.00,,,-99.99,,2013-07-07 08:12:00,
2013-07-07 04:22:00,65.0,64.0,-100.00,WSW,255,1.0,2.0,94,0.00,,,-99.99,,2013-07-07 08:22:00,
2013-07-07 04:34:00,66.0,64.0,-100.00,WSW,240,1.0,1.0,94,0.00,,,-99.99,,2013-07-07 08:34:00,
2013-07-07 04:44:00,65.0,64.0,-100.00,SW,235,0.0,2.0,94,0.00,,,-99.99,,2013-07-07 08:44:00,
2013-07-07 04:53:00,65.0,64.0,-100.00,WSW,245,1.0,1.0,94,0.00,,,-99.99,,2013-07-07 08:53:00,
2013-07-07 05:02:00,65.0,64.0,-100.00,NW,310,0.0,1.0,94,0.00,,,-99.99,,2013-07-07 09:02:00,
2013-07-07 05:12:00,65.0,64.0,-100.00,SW,235,0.0,1.0,94,0.00,,,-99.99,,2013-07-07 09:12:00,
2013-07-07 05:22:00,65.0,64.0,-100.00,West,260,1.0,2.0,94,0.00,,,-99.99,,2013-07-07 09:22:00,
2013-07-07 05:34:00,65.0,64.0,-100.00,WSW,245,2.0,3.0,94,0.00,,,-99.99,,2013-07-07 09:34:00,
2013-07-07 05:43:00,65.0,64.0,-100.00,WSW,245,0.0,2.0,94,0.00,,,-99.99,,2013-07-07 09:43:00,
2013-07-07 05:53:00,65.0,64.0,-100.00,South,190,0.0,4.0,94,0.00,,,-99.99,,2013-07-07 09:53:00,
2013-07-07 06:03:00,65.0,64.0,-100.00,WNW,285,0.0,1.0,94,0.00,,,-99.99,,2013-07-07 10:03:00,
2013-07-07 06:12:00,65.0,64.0,-100.00,NNW,335,0.0,0.0,94,0.00,,,-99.99,,2013-07-07 10:12:00,
2013-07-07 06:22:00,65.0,64.0,-100.00,North,5,0.0,1.0,94,0.00,,,-99.99,,2013-07-07 10:22:00,
2013-07-07 06:32:00,65.0,64.0,-100.00,NE,50,0.0,1.0,94,0.00,,,-99.99,,2013-07-07 10:32:00,
2013-07-07 06:43:00,65.0,63.0,-100.00,East,100,0.0,1.0,94,0.00,,,-99.99,,2013-07-07 10:43:00,
2013-07-07 06:52:00,65.0,64.0,-100.00,ENE,60,1.0,2.0,94,0.00,,,-99.99,,2013-07-07 10:52:00,
2013-07-07 07:02:00,65.0,64.0,-100.00,ENE,70,0.0,2.0,94,0.00,,,-99.99,,2013-07-07 11:02:00,
2013-07-07 07:11:00,66.0,64.0,-100.00,NW,320,0.0,2.0,94,0.00,,,-99.99,,2013-07-07 11:11:00,
2013-07-07 07:23:00,66.0,64.0,-100.00,NE,55,1.0,3.0,94,0.00,,,-99.99,,2013-07-07 11:23:00,
2013-07-07 07:34:00,66.0,65.0,-100.00,East,90,0.0,2.0,94,0.00,,,-99.99,,2013-07-07 11:34:00,
2013-07-07 07:53:00,66.0,65.0,-100.00,SSW,200,1.0,2.0,94,0.00,,,-99.99,,2013-07-07 11:53:00,
2013-07-07 08:02:00,66.0,65.0,-100.00,North,10,0.0,2.0,94,0.00,,,-99.99,,2013-07-07 12:02:00,
2013-07-07 08:12:00,66.0,65.0,-100.00,SW,230,0.0,1.0,94,0.00,,,-99.99,,2013-07-07 12:12:00,
2013-07-07 08:22:00,67.0,65.0,-100.00,WSW,240,1.0,3.0,94,0.00,,,-99.99,,2013-07-07 12:22:00,
2013-07-07 08:34:00,67.0,65.0,-100.00,SSW,210,0.0,1.0,94,0.00,,,-99.99,,2013-07-07 12:34:00,
2013-07-07 08:43:00,67.0,66.0,-100.00,WSW,240,1.0,3.0,94,0.00,,,-99.99,,2013-07-07 12:43:00,
2013-07-07 08:52:00,68.0,66.0,-100.00,SSW,200,0.0,3.0,94,0.00,,,-99.99,,2013-07-07 12:52:00,
2013-07-07 09:02:00,67.0,66.0,-100.00,SW,225,1.0,2.0,94,0.00,,,-99.99,,2013-07-07 13:02:00,
2013-07-07 09:12:00,68.0,66.0,-100.00,WSW,245,0.0,3.0,94,0.00,,,-99.99,,2013-07-07 13:12:00,
2013-07-07 09:22:00,68.0,66.0,-100.00,WSW,255,1.0,2.0,94,0.55,,,-99.99,,2013-07-07 13:22:00,
2013-07-07 09:34:00,68.0,66.0,-100.00,ENE,75,0.0,4.0,94,0.00,,,-99.99,,2013-07-07 13:34:00,
2013-07-07 09:43:00,68.0,66.0,-100.00,SW,220,1.0,2.0,93,0.00,,,-99.99,,2013-07-07 13:43:00,
2013-07-07 09:52:00,68.0,67.0,-100.00,South,180,1.0,3.0,94,0.55,,,-99.99,,2013-07-07 13:52:00,
2013-07-07 10:02:00,69.0,67.0,-100.00,WSW,250,1.0,3.0,93,0.00,,,-99.99,,2013-07-07 14:02:00,
2013-07-07 10:12:00,69.0,67.0,-100.00,SSW,200,1.0,3.0,93,0.00,,,-99.99,,2013-07-07 14:12:00,
2013-07-07 10:22:00,69.0,67.0,-100.00,SW,235,1.0,2.0,93,0.00,,,-99.99,,2013-07-07 14:22:00,
2013-07-07 10:34:00,70.0,68.0,-100.00,SSW,195,1.0,3.0,93,0.00,,,-99.99,,2013-07-07 14:34:00,
2013-07-07 10:43:00,70.0,68.0,-100.00,SW,215,1.0,4.0,92,0.00,,,-99.99,,2013-07-07 14:43:00,
2013-07-07 10:53:00,71.0,68.0,-100.00,SSW,210,1.0,3.0,92,0.00,,,-99.99,,2013-07-07 14:53:00,
2013-07-07 11:02:00,71.0,68.0,-100.00,SW,225,1.0,3.0,91,0.00,,,-99.99,,2013-07-07 15:02:00,
2013-07-07 11:11:00,71.0,68.0,-100.00,East,95,1.0,2.0,90,0.00,,,-99.99,,2013-07-07 15:11:00,
2013-07-07 11:22:00,72.0,68.0,-100.00,SW,215,1.0,3.0,89,0.00,,,-99.99,,2013-07-07 15:22:00,
2013-07-07 11:34:00,71.0,68.0,-100.00,SW,235,2.0,4.0,88,0.00,,,-99.99,,2013-07-07 15:34:00,
2013-07-07 11:43:00,73.0,68.0,-100.00,SW,215,1.0,5.0,84,0.00,,,-99.99,,2013-07-07 15:43:00,
2013-07-07 11:52:00,73.0,68.0,-100.00,East,100,1.0,3.0,83,0.00,,,-99.99,,2013-07-07 15:52:00,
2013-07-07 12:01:00,73.0,68.0,-100.00,ESE,110,1.0,3.0,83,0.00,,,-99.99,,2013-07-07 16:01:00,
2013-07-07 12:11:00,73.0,68.0,-100.00,SW,225,1.0,3.0,83,0.00,,,-99.99,,2013-07-07 16:11:00,
2013-07-07 12:23:00,74.0,68.0,-100.00,South,175,1.0,4.0,81,0.00,,,-99.99,,2013-07-07 16:23:00,
2013-07-07 12:34:00,75.0,67.0,-100.00,SW,235,2.0,5.0,77,0.00,,,-99.99,,2013-07-07 16:34:00,
2013-07-07 12:43:00,75.0,67.0,-100.00,SW,235,2.0,5.0,77,0.00,,,-99.99,,2013-07-07 16:43:00,
2013-07-07 12:53:00,77.0,69.0,-100.00,South,170,1.0,4.0,76,0.00,,,-99.99,,2013-07-07 16:53:00,
2013-07-07 13:02:00,77.0,68.0,-100.00,ESE,105,0.0,4.0,73,0.00,,,-99.99,,2013-07-07 17:02:00,
2013-07-07 13:12:00,77.0,68.0,-100.00,SW,230,2.0,6.0,74,0.00,,,-99.99,,2013-07-07 17:12:00,
2013-07-07 13:22:00,77.0,68.0,-100.00,SW,235,2.0,5.0,72,0.00,,,-99.99,,2013-07-07 17:22:00,
2013-07-07 13:34:00,78.0,68.0,-100.00,South,190,1.0,4.0,70,0.00,,,-99.99,,2013-07-07 17:34:00,
2013-07-07 13:43:00,79.0,69.0,-100.00,WSW,240,1.0,4.0,69,0.00,,,-99.99,,2013-07-07 17:43:00,
2013-07-07 13:53:00,79.0,68.0,-100.00,SW,230,1.0,4.0,70,0.00,,,-99.99,,2013-07-07 17:53:00,
2013-07-07 14:02:00,80.0,69.0,-100.00,WSW,245,2.0,4.0,69,0.00,,,-99.99,,2013-07-07 18:02:00,
2013-07-07 14:11:00,78.0,67.0,-100.00,South,180,2.0,4.0,70,0.00,,,-99.99,,2013-07-07 18:11:00,
2013-07-07 14:22:00,80.0,69.0,-100.00,East,90,1.0,4.0,69,0.00,,,-99.99,,2013-07-07 18:22:00,
2013-07-07 14:33:00,80.0,69.0,-100.00,South,170,1.0,6.0,68,0.00,,,-99.99,,2013-07-07 18:33:00,
2013-07-07 14:43:00,80.0,68.0,-100.00,SSE,155,1.0,5.0,66,0.00,,,-99.99,,2013-07-07 18:43:00,
2013-07-07 14:53:00,81.0,68.0,-100.00,WSW,240,1.0,4.0,66,0.00,,,-99.99,,2013-07-07 18:53:00,
2013-07-07 15:01:00,81.0,68.0,-100.00,WSW,240,1.0,4.0,66,0.00,,,-99.99,,2013-07-07 19:01:00,
2013-07-07 15:11:00,82.0,68.0,-100.00,SW,220,2.0,5.0,64,0.00,,,-99.99,,2013-07-07 19:11:00,
2013-07-07 15:22:00,80.0,68.0,-100.00,WSW,245,1.0,5.0,65,0.00,,,-99.99,,2013-07-07 19:22:00,
2013-07-07 15:34:00,82.0,68.0,-100.00,South,185,1.0,6.0,62,0.00,,,-99.99,,2013-07-07 19:34:00,
2013-07-07 15:43:00,82.0,68.0,-100.00,WSW,240,2.0,6.0,63,0.00,,,-99.99,,2013-07-07 19:43:00,
2013-07-07 15:54:00,82.0,68.0,-100.00,SSW,210,2.0,6.0,62,0.00,,,-99.99,,2013-07-07 19:54:00,
2013-07-07 16:02:00,82.0,68.0,-100.00,SSW,210,2.0,6.0,62,0.00,,,-99.99,,2013-07-07 20:02:00,
2013-07-07 16:11:00,81.0,67.0,-100.00,ENE,75,1.0,4.0,62,0.00,,,-99.99,,2013-07-07 20:11:00,
2013-07-07 16:22:00,81.0,68.0,-100.00,SW,235,2.0,6.0,65,0.00,,,-99.99,,2013-07-07 20:22:00,
2013-07-07 16:34:00,81.0,67.0,-100.00,ESE,105,1.0,5.0,61,0.00,,,-99.99,,2013-07-07 20:34:00,
2013-07-07 16:42:00,82.0,67.0,-100.00,SSW,210,2.0,5.0,62,0.00,,,-99.99,,2013-07-07 20:42:00,
2013-07-07 16:53:00,83.0,70.0,-100.00,South,190,1.0,6.0,63,0.00,,,-99.99,,2013-07-07 20:53:00,
2013-07-07 17:02:00,82.0,69.0,-100.00,South,180,2.0,5.0,65,0.00,,,-99.99,,2013-07-07 21:02:00,
2013-07-07 17:11:00,84.0,68.0,-100.00,SSW,210,2.0,6.0,60,0.00,,,-99.99,,2013-07-07 21:11:00,
2013-07-07 17:22:00,84.0,69.0,-100.00,SSW,210,1.0,6.0,59,0.00,,,-99.99,,2013-07-07 21:22:00,
2013-07-07 17:33:00,82.0,68.0,-100.00,SW,235,3.0,6.0,61,0.00,,,-99.99,,2013-07-07 21:33:00,
2013-07-07 17:43:00,85.0,69.0,-100.00,SW,235,1.0,6.0,58,0.00,,,-99.99,,2013-07-07 21:43:00,
2013-07-07 17:53:00,83.0,68.0,-100.00,SW,220,3.0,6.0,60,0.00,,,-99.99,,2013-07-07 21:53:00,
2013-07-07 18:01:00,83.0,69.0,-100.00,SSW,200,2.0,4.0,62,0.00,,,-99.99,,2013-07-07 22:01:00,
2013-07-07 18:11:00,84.0,68.0,-100.00,SW,220,1.0,6.0,58,0.00,,,-99.99,,2013-07-07 22:11:00,
2013-07-07 18:22:00,84.0,66.0,-100.00,SW,235,6.0,10.0,54,0.00,,,-99.99,,2013-07-07 22:22:00,
2013-07-07 18:34:00,83.0,65.0,-100.00,SW,230,6.0,10.0,55,0.00,,,-99.99,,2013-07-07 22:34:00,
2013-07-07 18:43:00,82.0,66.0,-100.00,WSW,250,5.0,9.0,57,0.00,,,-99.99,,2013-07-07 22:43:00,
2013-07-07 18:53:00,82.0,67.0,-100.00,South,175,2.0,8.0,60,0.00,,,-99.99,,2013-07-07 22:53:00,
2013-07-07 19:02:00,83.0,67.0,-100.00,WSW,255,2.0,6.0,58,0.00,,,-99.99,,2013-07-07 23:02:00,
2013-07-07 19:12:00,83.0,67.0,-100.00,SW,220,2.0,5.0,58,0.00,,,-99.99,,2013-07-07 23:12:00,
2013-07-07 19:22:00,83.0,67.0,-100.00,SW,215,2.0,6.0,59,0.00,,,-99.99,,2013-07-07 23:22:00,
2013-07-07 19:33:00,83.0,67.0,-100.00,SW,235,3.0,6.0,58,0.00,,,-99.99,,2013-07-07 23:33:00,
2013-07-07 19:43:00,82.0,67.0,-100.00,SW,235,2.0,6.0,60,0.00,,,-99.99,,2013-07-07 23:43:00,
2013-07-07 19:53:00,82.0,67.0,-100.00,WSW,245,2.0,6.0,60,0.00,,,-99.99,,2013-07-07 23:53:00,
2013-07-07 20:02:00,81.0,67.0,-100.00,SW,225,1.0,5.0,62,0.00,,,-99.99,,2013-07-08 00:02:00,
2013-07-07 20:12:00,80.0,68.0,-100.00,SW,235,2.0,4.0,66,0.00,,,-99.99,,2013-07-08 00:12:00,
2013-07-07 20:22:00,79.0,68.0,-100.00,SW,225,1.0,4.0,68,0.00,,,-99.99,,2013-07-08 00:22:00,
2013-07-07 20:33:00,79.0,68.0,-100.00,WNW,285,1.0,3.0,69,0.00,,,-99.99,,2013-07-08 00:33:00,
2013-07-07 20:43:00,78.0,69.0,-100.00,WSW,245,3.0,6.0,72,0.00,,,-99.99,,2013-07-08 00:43:00,
2013-07-07 20:53:00,78.0,69.0,-100.00,WSW,245,3.0,6.0,72,0.00,,,-99.99,,2013-07-08 00:53:00,
2013-07-07 21:01:00,76.0,70.0,-100.00,WSW,255,1.0,4.0,79,0.00,,,-99.99,,2013-07-08 01:01:00,
2013-07-07 21:11:00,76.0,70.0,-100.00,SSE,160,0.0,4.0,81,0.00,,,-99.99,,2013-07-08 01:11:00,
2013-07-07 21:22:00,75.0,69.0,-100.00,SW,220,1.0,3.0,83,0.00,,,-99.99,,2013-07-08 01:22:00,
2013-07-07 21:32:00,74.0,69.0,-100.00,SW,230,1.0,4.0,84,0.00,,,-99.99,,2013-07-08 01:32:00,
2013-07-07 21:43:00,74.0,69.0,-100.00,WNW,295,0.0,2.0,85,0.00,,,-99.99,,2013-07-08 01:43:00,
2013-07-07 21:52:00,74.0,69.0,-100.00,South,175,1.0,3.0,85,0.00,,,-99.99,,2013-07-08 01:52:00,
2013-07-07 22:02:00,73.0,69.0,-100.00,SSW,205,1.0,2.0,86,0.00,,,-99.99,,2013-07-08 02:02:00,
2013-07-07 22:11:00,73.0,69.0,-100.00,SW,215,1.0,2.0,87,0.00,,,-99.99,,2013-07-08 02:11:00,
2013-07-07 22:22:00,72.0,68.0,-100.00,WNW,285,0.0,3.0,87,0.00,,,-99.99,,2013-07-08 02:22:00,
2013-07-07 22:33:00,72.0,68.0,-100.00,West,275,1.0,3.0,88,0.00,,,-99.99,,2013-07-08 02:33:00,
2013-07-07 22:42:00,71.0,68.0,-100.00,NE,50,0.0,2.0,88,0.00,,,-99.99,,2013-07-08 02:42:00,
2013-07-07 22:52:00,71.0,68.0,-100.00,NNE,15,0.0,2.0,89,0.00,,,-99.99,,2013-07-08 02:52:00,
2013-07-07 23:02:00,71.0,68.0,-100.00,NNE,15,0.0,2.0,89,0.00,,,-99.99,,2013-07-08 03:02:00,
2013-07-07 23:12:00,70.0,67.0,-100.00,SW,235,1.0,2.0,90,0.00,,,-99.99,,2013-07-08 03:12:00,
2013-07-07 23:23:00,70.0,67.0,-100.00,ESE,120,0.0,2.0,90,0.00,,,-99.99,,2013-07-08 03:23:00,
2013-07-07 23:34:00,70.0,67.0,-100.00,ENE,60,0.0,2.0,91,0.00,,,-99.99,,2013-07-08 03:34:00,
2013-07-07 23:42:00,69.0,67.0,-100.00,ESE,105,0.0,1.0,91,0.00,,,-99.99,,2013-07-08 03:42:00,
2013-07-07 23:52:00,69.0,67.0,-100.00,SW,225,1.0,3.0,91,0.00,,,-99.99,,2013-07-08 03:52:00,